SBS 5

导读

SBS 5是由美国于1988年9月8日9时发射的通信卫星,属于SBS(卫星商业系统)系列卫星,该系列由美国邮政、联邦航空局等机构联合推动,服务美国本土商业卫星通信领域。SBS系列卫星填补了80年代美国商业卫星通信资源缺口,为当时的跨区域通信、广播电视传输提供支撑,标志着美国商用通信卫星网络布局进一步完善。

Basic Information
目录编号:
19484
目录名称:
SBS 5
国际标识:
1988-081B
轨道中心:
EARTH
卫星名称:
SBS 5
卫星全名:
--
卫星状态:
在轨 (已飞行13823 天)
发射日期:
1988-09-08 UTC
国别 :
美国 (US)
星等 :
--
Orbit Information
数据来源 国际轨道数据 AOE轨道数据
星历时间 2026-07-14T03:19:08+0800
12小时前
查看轨道信息
2026-07-11T23:00:00+0800
2天前
查看轨道信息
半长轴 42297.653km 42297.54km
偏心率 0.0005764 0.0005904
轨道倾角 14.610° 14.610°
近地点辐角 324.173° 324.644°
升交点赤经 0.723° 0.742°
平近点角 49.559° 345.849°
近地点 35895.135km 35894.43km
远地点 35943.897km 35944.376km
周期 1442.893分钟 1442.887分钟
每日圈数 0.997995 0.997999
Detailed Information
使用方式:
暂无
2D Orbit Map
3D Orbit Map
Orbit Altitude Analysis Chart
Orbit Inclination Analysis Chart
Orbit Comprehensive Analysis Chart
View Comprehensive Chart